Change the Weather History Date:

Friday, April 5, 2013

  Actual Average (KRWF) Record (KRWF)
Temperature  
Mean Temperature 32 °F -  
Max Temperature 35 °F 52 °F 86 °F (1991)
Min Temperature 30 °F 32 °F 14 °F (1979)
Degree Days  
Heating Degree Days 32    
Moisture  
Dew Point 28 °F    
Average Humidity 84    
Maximum Humidity 93    
Minimum Humidity 69    
Precipitation  
Precipitation 0.00 in - - ()
Sea Level Pressure  
Sea Level Pressure 30.07 in    
Wind  
Wind Speed 11 mph (East)    
Max Wind Speed 24 mph    
Max Gust Speed 34 mph    
Visibility 10 miles    
Events Snow    
Averages and records for this station are not official NWS values.
T = Trace of Precipitation, MM = Missing Value Source: NWS Daily Summary

Daily Weather History Graph

Daily Weather History Graph

Search for Another Location

Airport or City:

Trip Planner

Search our weather history database for the weather conditions in past years. The results will help you decide how hot, cold, wet, or windy it might be!

Date:

Astronomy

Apr. 05, 2013 Rise Set
Actual Time 6:53 AM CDT 7:53 PM CDT
Civil Twilight 6:23 AM CDT 8:22 PM CDT
Nautical Twilight 5:47 AM CDT 8:58 PM CDT
Astronomical Twilight 5:10 AM CDT 9:36 PM CDT
Moon 4:12 AM CDT (4/5) 3:07 PM CDT (4/5)
Length of Visible Light 13h 59m
Length of Day
13h 00m
Waning Crescent, 23% of the Moon is Illuminated
Apr 5
Waning Crescent
Apr 10
New
Apr 18
First Quarter
Apr 25
Full
May 2
Last Quarter

Hourly Weather History & Observations

Time (CDT) Temp. Windchill Dew Point Humidity Pressure Visibility Wind Dir Wind Speed Gust Speed Precip Events Conditions
12:11 AM 30.2 °F 22.6 °F 26.6 °F 86% 30.20 in 10.0 mi NNW 8.1 mph - N/A   Clear
12:31 AM 30.2 °F 21.9 °F 26.6 °F 86% 30.21 in 10.0 mi NNW 9.2 mph - N/A   Clear
12:50 AM 30.2 °F 22.6 °F 26.6 °F 86% 30.21 in 10.0 mi NNW 8.1 mph - N/A   Clear
1:11 AM 30.2 °F 21.9 °F 26.6 °F 86% 30.21 in 10.0 mi NNW 9.2 mph - N/A   Clear
1:30 AM 30.2 °F 23.4 °F 26.6 °F 86% 30.21 in 10.0 mi NNW 6.9 mph - N/A   Clear
1:51 AM 30.2 °F 23.4 °F 26.6 °F 86% 30.21 in 10.0 mi NNW 6.9 mph - N/A   Clear
2:10 AM 30.2 °F 22.6 °F 26.6 °F 86% 30.21 in 10.0 mi NNW 8.1 mph - N/A   Clear
2:30 AM 30.2 °F 23.4 °F 26.6 °F 86% 30.21 in 10.0 mi NNW 6.9 mph - N/A   Clear
2:51 AM 30.2 °F 24.3 °F 24.8 °F 80% 30.21 in 10.0 mi NNW 5.8 mph - N/A   Clear
3:11 AM 30.2 °F 24.3 °F 24.8 °F 80% 30.21 in 10.0 mi North 5.8 mph - N/A   Clear
3:30 AM 30.2 °F 23.4 °F 24.8 °F 80% 30.21 in 10.0 mi North 6.9 mph - N/A   Clear
3:51 AM 30.2 °F 25.4 °F 24.8 °F 80% 30.21 in 10.0 mi North 4.6 mph - N/A   Clear
4:11 AM 30.2 °F 24.3 °F 26.6 °F 86% 30.21 in 10.0 mi North 5.8 mph - N/A   Clear
4:30 AM 30.2 °F 24.3 °F 26.6 °F 86% 30.21 in 10.0 mi NNE 5.8 mph - N/A   Clear
4:50 AM 30.2 °F 24.3 °F 26.6 °F 86% 30.21 in 10.0 mi NNE 5.8 mph - N/A   Clear
5:10 AM 30.2 °F 26.7 °F 26.6 °F 86% 30.21 in 10.0 mi NNE 3.5 mph - N/A   Clear
5:31 AM 30.2 °F 25.4 °F 26.6 °F 86% 30.21 in 10.0 mi NE 4.6 mph - N/A   Clear
5:50 AM 30.2 °F 24.3 °F 26.6 °F 86% 30.20 in 10.0 mi NE 5.8 mph - N/A   Clear
6:10 AM 30.2 °F 23.4 °F 26.6 °F 86% 30.20 in 10.0 mi ENE 6.9 mph - N/A   Clear
6:31 AM 30.2 °F 24.3 °F 26.6 °F 86% 30.20 in 10.0 mi ENE 5.8 mph - N/A   Clear
6:51 AM 30.2 °F 25.4 °F 24.8 °F 80% 30.19 in 10.0 mi ENE 4.6 mph - N/A   Clear
7:10 AM 30.2 °F 24.3 °F 23.0 °F 75% 30.20 in 10.0 mi East 5.8 mph - N/A   Clear
7:31 AM 30.2 °F 23.4 °F 23.0 °F 75% 30.20 in 10.0 mi East 6.9 mph - N/A   Clear
7:50 AM 30.2 °F 21.3 °F 23.0 °F 75% 30.19 in 10.0 mi East 10.4 mph - N/A   Clear
8:11 AM 32.0 °F 23.0 °F 23.0 °F 69% 30.19 in 10.0 mi East 11.5 mph 16.1 mph N/A   Clear
8:31 AM 32.0 °F 23.0 °F 23.0 °F 69% 30.19 in 10.0 mi East 11.5 mph - N/A   Clear
8:50 AM 32.0 °F 23.6 °F 23.0 °F 69% 30.18 in 10.0 mi East 10.4 mph - N/A   Clear
9:10 AM 32.0 °F 23.0 °F 23.0 °F 69% 30.18 in 10.0 mi ESE 11.5 mph - N/A   Clear
9:31 AM 32.0 °F 22.1 °F 23.0 °F 69% 30.18 in 10.0 mi ESE 13.8 mph 17.3 mph N/A   Clear
9:50 AM 32.0 °F 24.2 °F 23.0 °F 69% 30.18 in 10.0 mi ESE 9.2 mph - N/A   Clear
10:11 AM 33.8 °F 26.4 °F 26.6 °F 75% 30.19 in 10.0 mi ESE 9.2 mph - N/A   Clear
10:31 AM 33.8 °F 25.8 °F 26.6 °F 75% 30.17 in 10.0 mi ESE 10.4 mph - N/A   Clear
10:50 AM 33.8 °F 25.8 °F 26.6 °F 75% 30.16 in 10.0 mi ESE 10.4 mph - N/A   Clear
11:11 AM 33.8 °F 25.8 °F 26.6 °F 75% 30.16 in 10.0 mi ESE 10.4 mph - N/A   Clear
11:31 AM 33.8 °F 25.8 °F 26.6 °F 75% 30.15 in 10.0 mi ESE 10.4 mph 16.1 mph N/A   Clear
11:50 AM 33.8 °F 25.8 °F 26.6 °F 75% 30.13 in 10.0 mi ESE 10.4 mph - N/A   Clear
12:11 PM 33.8 °F 26.4 °F 26.6 °F 75% 30.16 in 10.0 mi SE 9.2 mph - N/A   Scattered Clouds
12:31 PM 33.8 °F 26.4 °F 28.4 °F 81% 30.15 in 1.5 mi ESE 9.2 mph - N/A Snow Light Snow
12:51 PM 32.0 °F 23.0 °F 28.4 °F 87% 30.15 in 1.2 mi SE 11.5 mph - N/A Snow Light Snow
1:11 PM 32.0 °F 23.0 °F 30.2 °F 93% 30.12 in 1.2 mi ESE 11.5 mph - N/A Snow Light Snow
1:30 PM 32.0 °F 23.6 °F 30.2 °F 93% 30.11 in 2.5 mi ESE 10.4 mph 17.3 mph N/A Snow Light Snow
1:51 PM 33.8 °F 24.8 °F 32.0 °F 93% 30.10 in 7.0 mi ESE 12.7 mph - N/A   Scattered Clouds
2:10 PM 33.8 °F 24.3 °F 32.0 °F 93% 30.08 in 10.0 mi East 13.8 mph 19.6 mph N/A   Mostly Cloudy
2:31 PM 33.8 °F 23.2 °F 32.0 °F 93% 30.05 in 10.0 mi East 17.3 mph 24.2 mph N/A   Mostly Cloudy
2:50 PM 33.8 °F 22.8 °F 32.0 °F 93% 30.04 in 10.0 mi East 18.4 mph 24.2 mph N/A   Scattered Clouds
3:10 PM 33.8 °F 23.5 °F 32.0 °F 93% 30.02 in 10.0 mi East 16.1 mph 26.5 mph N/A   Scattered Clouds
3:31 PM 35.6 °F 24.8 °F 32.0 °F 87% 30.00 in 10.0 mi ESE 19.6 mph 27.6 mph N/A   Scattered Clouds
3:50 PM 33.8 °F 21.6 °F 32.0 °F 93% 29.99 in 10.0 mi ESE 23.0 mph 27.6 mph N/A   Clear
4:11 PM 33.8 °F 22.2 °F 32.0 °F 93% 29.98 in 10.0 mi ESE 20.7 mph 27.6 mph N/A   Clear
4:31 PM 35.6 °F 24.2 °F 32.0 °F 87% 29.95 in 10.0 mi ESE 21.9 mph 33.4 mph N/A   Clear
4:51 PM 35.6 °F 24.0 °F 32.0 °F 87% 29.94 in 10.0 mi ESE 23.0 mph 29.9 mph N/A   Clear
5:10 PM 35.6 °F 24.5 °F 32.0 °F 87% 29.94 in 10.0 mi East 20.7 mph 28.8 mph N/A   Clear
5:31 PM 35.6 °F 24.2 °F 32.0 °F 87% 29.93 in 10.0 mi ESE 21.9 mph 28.8 mph N/A   Clear
5:50 PM 35.6 °F 25.5 °F 32.0 °F 87% 29.92 in 10.0 mi ESE 17.3 mph 26.5 mph N/A   Clear
6:10 PM 35.6 °F 24.8 °F 32.0 °F 87% 29.93 in 10.0 mi ESE 19.6 mph 27.6 mph N/A   Clear
6:31 PM 35.6 °F 25.2 °F 32.0 °F 87% 29.92 in 10.0 mi ESE 18.4 mph 28.8 mph N/A   Clear
6:50 PM 35.6 °F 24.8 °F 32.0 °F 87% 29.91 in 10.0 mi ESE 19.6 mph 25.3 mph N/A   Clear
7:10 PM 35.6 °F 25.5 °F 32.0 °F 87% 29.91 in 10.0 mi ESE 17.3 mph 25.3 mph N/A   Clear
7:31 PM 35.6 °F 24.8 °F 32.0 °F 87% 29.89 in 10.0 mi ESE 19.6 mph 26.5 mph N/A   Clear
7:50 PM 33.8 °F 22.5 °F 32.0 °F 93% 29.89 in 10.0 mi East 19.6 mph 28.8 mph N/A   Clear
8:11 PM 33.8 °F 22.2 °F 32.0 °F 93% 29.88 in 10.0 mi East 20.7 mph 28.8 mph N/A   Clear
8:31 PM 35.6 °F 24.5 °F 32.0 °F 87% 29.87 in 10.0 mi ESE 20.7 mph 32.2 mph N/A   Clear
8:50 PM 35.6 °F 24.5 °F 32.0 °F 87% 29.86 in 10.0 mi ESE 20.7 mph 29.9 mph N/A   Clear
9:10 PM 35.6 °F 24.5 °F 32.0 °F 87% 29.85 in 10.0 mi ESE 20.7 mph 31.1 mph N/A   Clear
9:31 PM 35.6 °F 24.0 °F 32.0 °F 87% 29.84 in 10.0 mi ESE 23.0 mph 34.5 mph N/A   Clear
9:51 PM 33.8 °F 21.6 °F 32.0 °F 93% 29.83 in 10.0 mi ESE 23.0 mph 29.9 mph N/A   Clear
10:10 PM 35.6 °F 23.7 °F 32.0 °F 87% 29.82 in 10.0 mi ESE 24.2 mph 29.9 mph N/A   Clear
10:31 PM 35.6 °F 24.5 °F 32.0 °F 87% 29.81 in 10.0 mi ESE 20.7 mph 31.1 mph N/A   Clear
10:50 PM 35.6 °F 24.5 °F 32.0 °F 87% 29.80 in 10.0 mi ESE 20.7 mph 27.6 mph N/A   Clear
11:10 PM 35.6 °F 25.2 °F 32.0 °F 87% 29.78 in 10.0 mi ESE 18.4 mph 26.5 mph N/A   Clear
11:31 PM 35.6 °F 25.2 °F 32.0 °F 87% 29.77 in 10.0 mi ESE 18.4 mph 29.9 mph N/A   Clear
11:50 PM 35.6 °F 24.8 °F 32.0 °F 87% 29.76 in 10.0 mi ESE 19.6 mph 25.3 mph N/A   Clear